Regional Weather Roundup
Issued by NWS Grand Forks, ND

Home | Current Version | Previous Version | Graphics & Text | Print | Product List | Glossary On
Versions: 1 2 3 4 5 6 7 8 9 10 11 12 13 14 15 16 17 18 19 20 21 22 23 24 25 26 27 28 29 30 31 32 33 34 35 36 37 38 39 40 41 42 43 44 45 46 47 48 49 50
000
ASUS43 KFGF 040931
RWRFGF
PRAIRIE TO PINES  WEATHER ROUNDUP
NATIONAL WEATHER SERVICE EASTERN NORTH DAKOTA/GRAND FORKS ND
300 AM CST SUN DEC 04 2016

 **SATELLITE DATA USED TO AUGMENT SKY COVER AT AUTOMATED STATIONS**
 *****  WEATHER ACROSS EASTERN NORTH DAKOTA  *****

CITY           SKY/WX    TMP DP  RH WIND       PRES   REMARKS
GRAND FORKS    CLOUDY    34  32  92 S15       29.80F FOG     WCI  24
GRAND FRKS AFB CLOUDY    32  32 100 S14       29.78F WCI  22
GRAND FRKS NWS   N/A     32 N/A N/A SE21        N/A  WCI  20
DEVILS LAKE    LGT SNOW  30  30 100 SW10      29.72S FOG     WCI  21
FARGO          CLOUDY    35  32  88 SE18      29.84F WCI  24
WAHPETON ARPT  CLOUDY    32  32 100 SE15G22   29.86F WCI  22
$$

 ***** WEATHER ACROSS CENTRAL AND WESTERN NORTH DAKOTA  *****

CITY           SKY/WX    TMP DP  RH WIND       PRES   REMARKS
BISMARCK       MOCLDY    34  30  85 W13       29.76F WCI  25
MINOT          CLOUDY    30  26  85 W14       29.71S WCI  19
JAMESTOWN      CLOUDY    31  30  96 S12       29.75F WCI  22
MINOT AFB      CLOUDY    28  25  89 NW20      29.70S WCI  14
GARRISON         N/A     33  31  92 NW14      29.72S WCI  23
WILLISTON      LGT SNOW  33  31  92 W6        29.78S FOG
DICKINSON      PTCLDY    24  21  88 W10       29.77R WCI  14
HETTINGER      CLEAR     21  17  84 NW6       29.83R WCI  13
$$

 *****  OTHER AIRPORT OBSERVATIONS IN OUR AREA  *****

CITY           SKY/WX    TMP DP  RH WIND       PRES   REMARKS
WALHALLA         N/A     32  32 100 SE14G20   29.76F WCI  22
GRAFTON AIRPOR CLOUDY    32  32 100 SE13      29.81F FOG     WCI  22
VALLEY CITY AR LGT SNOW  32  32 100 S12       29.79S WCI  23
CANDO          CLOUDY    30  30 100 S8        29.72F WCI  23
CAVALIER APRT    N/A     32  32 100 SE13      29.77F FOG     WCI  22
GWINNER        PTSUNNY   34  34 100 S16       29.81S WCI  23
SHEYENNE NWR     N/A     34  32  91 S9        29.95S
ROLLA          CLOUDY    27  27 100 SW8       29.67F WCI  18
 ***** THE ABOVE OBSERVATIONS ARE NON NWS ARE NOT QUALITY
       CONTROLLED AND MAY MIS-REPORT RAIN FOR SNOW...
$$

  *****  WEATHER ACROSS NORTHERN MINNESOTA  *****

CITY           SKY/WX    TMP DP  RH WIND       PRES   REMARKS
FLAG ISLAND    LGT SNOW  28  27  93 SE13      29.90F WCI  18
WARROAD        CLOUDY    28  25  86 SE8       29.89F WCI  20
ROSEAU         CLOUDY    30  27  86 SE12      29.87F WCI  21
HALLOCK        CLOUDY    34  32  93 SE15      29.80F FOG     WCI  24
THF RVR FALLS  CLOUDY    32  30  92 SE17      29.85F WCI  21
BAUDETTE       LGT SNOW  26  23  88 SE12      29.93F FOG     WCI  16
WASKISH        CLOUDY    28  27  93 SE6       29.93F WCI  22
CROOKSTON      CLOUDY    34  34 100 S15       29.83F FOG     WCI  24
STEPHEN NDAWN    N/A     34  32  93 SE12        N/A
GREENBUSH NDAW   N/A     30  28  93 SE12        N/A  WCI  21
$$
  *****  WEATHER ACROSS CENTRAL AND WEST MINNESOTA  *****

CITY           SKY/WX    TMP DP  RH WIND       PRES   REMARKS
FOSSTON        CLOUDY    30  28  93 SE12      29.86F WCI  21
BEMIDJI        CLOUDY    28  27  94 SE10      29.91F WCI  19
PARK RAPIDS    CLOUDY    30  26  85 SE16      29.92F FOG     WCI  19
ELBOW LAKE     CLOUDY    32  32  99 S16       29.89F WCI  22
WADENA         MIX PCPN  30  30 100 SE9       29.90F WCI  22
DETROIT LAKES  CLOUDY    32  32 100 S14       29.87F FOG     WCI  22
MOORHEAD       CLOUDY    34  30  86 S18G29    29.85F FOG     WCI  23
FERGUS FALLS   CLOUDY    34  34 100 S14       29.91F FOG     WCI  24
MORRIS MN      CLOUDY    34  32  93 S12       29.89F FOG
STAPLES        CLOUDY    28  28 100 SE7       29.94F WCI  21
$$
  *****  WEATHER ELSEWHERE ACROSS MINNESOTA  *****

CITY           SKY/WX    TMP DP  RH WIND       PRES   REMARKS
DULUTH         LGT SNOW  26  24  92 SE10      30.04F FOG     WCI  16
INTRNTL FALLS  LGT SNOW  26  23  88 SE9       29.98F VSB 1   WCI  17
ELY            LGT SNOW  25  23  93 SE8       30.04F WCI  16
CLOQUET        LGT SNOW  27  25  93 E6        30.04F WCI  20
WHEATON        CLOUDY   N/A N/A N/A S13       29.89F HAZE
BRAINERD       LGT SNOW  29  27  92 SE9       29.96F FOG     WCI  20
HIBBING        LGT SNOW  25  23  92 SE8       30.01F VSB 3/4 WCI  16
ALEXANDRIA     CLOUDY    33  33 100 S16       29.93F FOG     WCI  23
SAINT CLOUD    LGT SNOW  31  30  96 SE10      29.98F FOG     WCI  22
MINNEAPOLIS    LGT SNOW  31  28  89 SE10      30.06F FOG     WCI  22
$$

  *****  WEATHER ACROSS SOUTH DAKOTA  *****

CITY           SKY/WX    TMP DP  RH WIND       PRES   REMARKS
SIOUX FALLS    CLOUDY    35  33  92 S13       29.94F
BROOKINGS      CLOUDY    34  30  86 S14       29.88F WCI  24
WATERTOWN      CLOUDY    32  31  96 S15       29.85F WCI  22
HURON          PTCLDY    29  29 100 S7        29.88F WCI  22
SISSETON         N/A     34  32  92 S12       29.85F
ABERDEEN       PTCLDY    29  25  85 S10       29.84F WCI  20
MITCHELL       CLEAR     30  28  92 S3        29.91F
PIERRE         CLEAR     26  21  81 CALM      29.86S
MOBRIDGE       CLEAR     34  30  85 W5        29.80R
RAPID CITY     CLEAR     32  23  69 W13       29.91R WCI  22
$$

  *****  SOME WEATHER IN NEARBY STATES *****

CITY           SKY/WX    TMP DP  RH WIND       PRES   REMARKS
GLASGOW MT     CLEAR     23  20  88 W14       29.82S WCI  11
GREAT FALLS MT CLOUDY    33  21  61 SW18      29.83F WCI  22
CHEYENNE WY    CLEAR     23   9  55 N5        30.00R WCI  17
SCOTTSBLUFF NE CLEAR     22  14  71 NW10      30.01S WCI  11
OMAHA NE       CLOUDY    35  31  85 S7        30.03S
DES MOINES IA  LGT SNOW  35  34  96 S8        30.06F FOG
DAVENPORT IA   CLOUDY    33  27  78 SE13      30.17F WCI  24
CHICAGO IL     CLOUDY    31  26  82 S3        30.23F
EAU CLAIRE WI  LGT SNOW  30  27  88 SE6       30.11F FOG     WCI  24
LA CROSSE WI   FLURRIES  33  31  92 SE6       30.14F
$$

  *****  SOME NATIONAL WEATHER *****

CITY           SKY/WX    TMP DP  RH WIND       PRES   REMARKS
LA GUARDIA NY  CLOUDY    43  26  51 NW10G22   30.19S
RALEIGH NC     CLOUDY    43  30  60 NE3       30.26F
ATLANTA GA     CLOUDY    46  43  89 E13       30.14F
NEW ORLEANS LA LGT RAIN  63  63 100 NE3       29.90F FOG
OKLAHOMA CITY  LGT RAIN  44  43  96 NW3       30.03R FOG
ALBUQUERQUE NM CLOUDY    28  19  69 CALM      30.12R
SALT LAKE CITY PTCLDY    30  20  66 SE12      30.24F WCI  20
LOS ANGELES CA CLEAR     52  32  46 CALM      30.06S
BOISE ID       CLOUDY    37  28  70 SE9       30.13F
SEATTLE WA     CLOUDY    45  42  89 SW15G24   30.02F
$$

*** WEATHER ACROSS MANITOBA...SASKATCHEWAN AND ONTARIO ***
                ***ONTARIO***

CITY           SKY/WX    TMP DP  RH WIND       PRES   REMARKS
GERALDTON      CLOUDY    21  19  93 SE7       30.17F WCI  13
THUNDER BAY    FLURRIES  28  28 100 VRB2      30.13F
SIOUX LOOKOUT  CLOUDY    25  21  86 S7        30.02F WCI  17
TORONTO        MOCLDY    34  28  80 N3        30.26F
BIG TROUT LK   FLURRIES  19  18  93 S13       30.06F WCI   7
PICKLE LAKE    NOT AVBL
DRYDEN         CLOUDY    25  21  86 SE9       29.99F WCI  15
KENORA         LGT SNOW  25  23  93 SE12      29.91F VSB 1   WCI  14
$$
                *** MANITOBA***

CITY           SKY/WX    TMP DP  RH WIND       PRES   REMARKS
BRANDON        LGT SNOW  28  28 100 S3        29.70F
DAUPHIN        LGT SNOW  28  27  93 SE6       29.71S WCI  22
ISLAND LAKE    NOT AVBL
PILOT MOUND      N/A     30  30 100 SE13        N/A  WCI  20
THE PAS        LGT SNOW  27  27 100 SE3       29.69F FOG
THOMPSON       LGT SNOW  18  16  93 E5        29.82F WCI  11
WINNIPEG       CLOUDY    28  27  93 SE14G22   29.81F WCI  17
LYNN LAKE      FLURRIES  21  21 100 SE9       29.69F WCI  11
CHURCHILL      FLURRIES  10   9  92 S12       29.99F WCI  -4
GILLAM         LGT SNOW   9   5  85 SE6       29.96F WCI  -1
$$
                ***SASKATCHEWAN***

CITY           SKY/WX    TMP DP  RH WIND       PRES   REMARKS
ESTEVAN        NOT AVBL
KINDERSLEY     PTCLDY    10   7  85 S7        29.69F WCI   0
LLOYDMINSTER   CLEAR     18  12  79 W12       29.64F WCI   5
PRINCE ALBERT  CLOUDY    27  25  93 W7        29.68S WCI  19
REGINA         CLOUDY    25  25 100 W10       29.73S WCI  15
YORKTON        CLOUDY    27  25  93 NW13      29.68S WCI  16
N. BATTLEFORD  PTCLDY    14  14 100 S5        29.69F FOG     WCI   6
LA RONGE       CLOUDY    27  23  86 S6        29.62F WCI  20
SASKATOON      FOG       21  21 100 S9        29.72F VSB 1/8 WCI  11
SWIFT CURRENT  PTCLDY    19  16  86 SW13      29.70F WCI   7
$$
NOTE: THESE ARE AUTOMATED STATIONS WITH LIMITED QUALITY CONTROL
      "FAIR" INDICATES FEW OR NO CLOUDS BELOW 12,000 FEET WITH NO
      SIGNIFICANT WEATHER AND/OR OBSTRUCTIONS TO VISIBILITY.
      SKY/WX - SKY CONDITION AND SIGNIFICANT WEATHER.
      TMP - AIR TEMPERATURE.    DP   - DEWPOINT TEMPERATURE.
      RH  - RELATIVE HUMIDITY.  PRES - PRESSURE.
      HX  - HEAT INDEX.         WCI  - WIND CHILL INDEX.
$




USA.gov is the U.S. government's official web portal to all federal, state and local government web resources and services.